EW4932 Weather Reports


time (UTC)temp
C
wind
direction
speed
KPH
gust
KPH
rain 1hr
cm
rain 24hr
cm
rain mn
cm
humidity
%
barometer
mb
20260505231006 17 310 0.0 1.6 0.00 0.00 0.00 71 1015.1
20260505230505 17 309 0.0 1.6 0.00 0.00 0.00 72 1015.1
20260505230006 17 0 0.0 0.0 0.00 0.00 0.00 73 1015.1
20260505225505 17 0 0.0 0.0 0.00 0.00 0.00 71 1015.2
20260505225005 17 0 0.0 0.0 0.00 0.00 0.00 70 1015.2
20260505224505 17 0 0.0 0.0 0.00 0.00 0.00 70 1015.2
20260505224006 17 0 0.0 0.0 0.00 0.00 0.00 70 1015.3
20260505223506 17 0 0.0 0.0 0.00 0.00 0.00 70 1015.4
20260505223005 17 1 0.0 1.6 0.00 0.00 0.00 73 1015.4
20260505222506 17 349 1.6 6.4 0.00 0.00 0.00 72 1015.3
20260505221505 17 322 0.0 3.2 0.00 0.00 0.00 73 1015.5
20260505221005 17 337 0.0 1.6 0.00 0.00 0.00 72 1015.4
20260505220505 17 337 0.0 1.6 0.00 0.00 0.00 73 1015.5
20260505215005 17 231 1.6 8.0 0.00 0.00 0.00 72 1015.5
20260505214005 17 229 1.6 9.7 0.00 0.00 0.00 70 1015.5
20260505213505 17 221 1.6 9.7 0.00 0.00 0.00 69 1015.5
20260505213005 17 212 1.6 4.8 0.00 0.00 0.00 69 1015.5
20260505212006 17 256 1.6 6.4 0.00 0.00 0.00 69 1015.5
20260505211506 17 234 1.6 8.0 0.00 0.00 0.00 71 1015.6
20260505211005 17 217 1.6 8.0 0.00 0.00 0.00 69 1015.7
20260505210505 17 246 0.0 4.8 0.00 0.00 0.00 69 1015.6
20260505210005 17 9 0.0 6.4 0.00 0.00 0.00 70 1015.6
20260505205505 17 217 1.6 9.7 0.00 0.00 0.00 75 1015.7
20260505205005 17 214 1.6 9.7 0.00 0.00 0.00 70 1015.7
20260505204505 17 183 0.0 4.8 0.00 0.00 0.00 71 1015.7
20260505203505 17 231 1.6 8.0 0.00 0.00 0.00 72 1015.8
20260505202505 16 233 0.0 1.6 0.00 0.00 0.00 72 1015.8
20260505202005 16 233 0.0 1.6 0.00 0.00 0.00 71 1015.9
20260505201505 16 241 0.0 1.6 0.00 0.00 0.00 74 1015.9
20260505200505 16 225 1.6 6.4 0.00 0.00 0.00 72 1015.9
20260505200005 16 236 1.6 8.0 0.00 0.00 0.00 71 1015.9
20260505195005 16 316 0.0 4.8 0.00 0.00 0.00 72 1015.9
20260505194505 16 273 0.0 1.6 0.00 0.00 0.00 72 1016.0
20260505194005 16 248 0.0 1.6 0.00 0.00 0.00 74 1016.0
20260505193505 16 248 0.0 1.6 0.00 0.00 0.00 72 1016.0
20260505193005 16 0 0.0 0.0 0.00 0.00 0.00 73 1015.9
20260505192506 16 0 0.0 0.0 0.00 0.00 0.00 71 1016.0
20260505192005 16 229 1.6 6.4 0.00 0.00 0.00 71 1016.0
20260505191506 16 228 1.6 6.4 0.00 0.00 0.00 73 1016.0
20260505190505 17 207 1.6 9.7 0.00 0.00 0.00 70 1015.9
20260505190005 16 137 0.0 4.8 0.00 0.00 0.00 73 1015.8
20260505185505 16 0 0.0 0.0 0.00 0.00 0.00 72 1015.8
20260505185005 16 225 0.0 8.0 0.00 0.00 0.00 73 1016.0
20260505184506 16 255 1.6 8.0 0.00 0.00 0.00 72 1016.0
20260505184006 16 252 1.6 8.0 0.00 0.00 0.00 76 1016.0
20260505183505 16 185 0.0 8.0 0.00 0.00 0.00 74 1016.1
20260505183005 16 108 1.6 11.3 0.00 0.00 0.00 75 1016.0
20260505181506 16 151 0.0 1.6 0.00 0.00 0.00 74 1015.9
20260505181005 16 151 0.0 1.6 0.00 0.00 0.00 74 1015.9
20260505180505 16 0 0.0 0.0 0.00 0.00 0.00 74 1015.9
20260505180006 16 0 0.0 0.0 0.00 0.00 0.00 77 1015.9
20260505175505 15 0 0.0 0.0 0.00 0.00 0.00 77 1015.9
20260505175006 15 0 0.0 0.0 0.00 0.00 0.00 80 1015.9
20260505173505 15 239 0.0 1.6 0.00 0.00 0.00 81 1016.0
20260505173005 14 248 0.0 3.2 0.00 0.00 0.00 82 1016.0
20260505172505 14 250 0.0 3.2 0.00 0.00 0.00 80 1016.0
20260505172008 14 238 0.0 6.4 0.00 0.00 0.00 81 1016.0
20260505170005 13 0 0.0 0.0 0.00 0.00 0.00 81 1015.7
20260505165505 13 0 0.0 0.0 0.00 0.00 0.00 82 1015.7
20260505164505 13 243 1.6 6.4 0.00 0.00 0.00 81 1015.7
20260505164005 13 242 1.6 4.8 0.00 0.00 0.00 81 1015.7
20260505163505 13 212 0.0 3.2 0.00 0.00 0.00 82 1015.7
20260505163009 13 212 0.0 3.2 0.00 0.00 0.00 82 1015.7
20260505162506 13 219 0.0 4.8 0.00 0.00 0.00 82 1015.7
20260505162005 13 197 0.0 4.8 0.00 0.00 0.00 82 1015.6
20260505161506 13 206 1.6 8.0 0.00 0.00 0.00 82 1015.6
20260505161005 13 214 1.6 8.0 0.00 0.00 0.00 82 1015.6
20260505160505 13 200 0.0 4.8 0.00 0.00 0.00 83 1015.6
20260505153005 13 231 0.0 6.4 0.00 0.00 0.00 83 1015.5
20260505152505 12 0 0.0 0.0 0.00 0.00 0.00 84 1015.5
20260505152005 12 191 0.0 3.2 0.00 0.00 0.00 85 1015.4
20260505151505 12 196 0.0 3.2 0.00 0.00 0.00 85 1015.5
20260505140505 12 201 0.0 3.2 0.00 0.00 0.00 87 1014.9
20260505124505 11 0 0.0 0.0 0.00 0.00 0.00 88 1014.4
20260505124006 11 0 0.0 0.0 0.00 0.00 0.00 88 1014.4
20260505123004 11 0 0.0 0.0 0.00 0.00 0.00 88 1014.4
20260505122505 11 0 0.0 0.0 0.00 0.00 0.00 88 1014.4
20260505122005 11 0 0.0 0.0 0.00 0.00 0.00 88 1014.4
20260505121505 11 0 0.0 0.0 0.00 0.00 0.00 88 1014.4
20260505121005 11 0 0.0 0.0 0.00 0.00 0.00 88 1014.4
20260505120505 11 0 0.0 0.0 0.00 0.00 0.00 88 1014.3
20260505120005 11 0 0.0 0.0 0.00 0.00 0.00 89 1014.4
20260505115505 11 0 0.0 0.0 0.00 0.00 0.00 89 1014.3
20260505114005 11 0 0.0 0.0 0.00 0.00 0.00 89 1014.3
20260505113505 11 0 0.0 0.0 0.00 0.00 0.00 89 1014.3
20260505113005 11 0 0.0 0.0 0.00 0.00 0.00 89 1014.2
20260505112505 11 0 0.0 0.0 0.00 0.00 0.00 90 1014.3
20260505112005 11 0 0.0 0.0 0.00 0.00 0.00 90 1014.3
20260505111505 11 0 0.0 0.0 0.00 0.00 0.00 90 1014.2
20260505111005 11 0 0.0 0.0 0.00 0.00 0.00 90 1014.2
20260505110505 11 0 0.0 0.0 0.00 0.00 0.00 90 1014.2
20260505102006 11 0 0.0 0.0 0.00 0.00 0.00 89 1013.7
20260505101505 11 218 0.0 3.2 0.00 0.00 0.00 89 1013.7
20260505101005 11 211 0.0 3.2 0.00 0.00 0.00 89 1013.7
20260505100505 11 206 0.0 4.8 0.00 0.00 0.00 88 1013.7
20260505095505 11 202 0.0 1.6 0.00 0.00 0.00 88 1013.7
20260505095005 11 207 0.0 1.6 0.00 0.00 0.00 88 1013.7
20260505094505 11 216 0.0 1.6 0.00 0.00 0.00 87 1013.7
20260505094005 11 0 0.0 0.0 0.00 0.00 0.00 87 1013.7
20260505093505 11 0 0.0 0.0 0.00 0.00 0.00 87 1013.7
20260505093005 11 0 0.0 0.0 0.00 0.00 0.00 87 1013.6
20260505092505 11 0 0.0 0.0 0.00 0.00 0.00 86 1013.6
20260505092005 11 0 0.0 0.0 0.00 0.00 0.00 86 1013.5
20260505091505 11 0 0.0 0.0 0.00 0.00 0.00 86 1013.5
20260505091005 11 0 0.0 0.0 0.00 0.00 0.00 86 1013.5
20260505090505 11 0 0.0 0.0 0.00 0.00 0.00 86 1013.5
20260505090005 11 0 0.0 0.0 0.00 0.00 0.00 86 1013.3
20260505085505 11 164 0.0 3.2 0.00 0.00 0.00 86 1013.2
20260505085005 11 186 0.0 3.2 0.00 0.00 0.00 86 1013.2
20260505084505 11 209 0.0 3.2 0.00 0.00 0.00 86 1013.2
20260505084005 11 212 0.0 4.8 0.00 0.00 0.00 85 1013.2
20260505083505 11 208 0.0 4.8 0.00 0.00 0.00 85 1013.3
20260505083006 12 183 0.0 4.8 0.00 0.00 0.00 85 1013.3
20260505082005 12 0 0.0 0.0 0.00 0.00 0.00 84 1013.3
20260505081505 12 0 0.0 0.0 0.00 0.00 0.00 84 1013.2
20260505080505 12 0 0.0 0.0 0.00 0.00 0.00 83 1013.1
20260505080005 12 0 0.0 0.0 0.00 0.00 0.00 83 1013.0
20260505075505 12 0 0.0 0.0 0.00 0.00 0.00 82 1013.0
20260505073505 12 237 0.0 3.2 0.00 0.00 0.00 82 1012.7
20260505073005 12 225 0.0 3.2 0.00 0.00 0.00 82 1012.7
20260505072505 13 202 0.0 3.2 0.00 0.00 0.00 82 1012.7
20260505072006 13 211 1.6 6.4 0.00 0.00 0.00 81 1012.6
20260505071505 13 213 0.0 6.4 0.00 0.00 0.00 81 1012.6
20260505071005 13 177 0.0 3.2 0.00 0.00 0.00 81 1012.5
20260505070505 13 200 0.0 6.4 0.00 0.00 0.00 81 1012.5
20260505065505 13 225 1.6 8.0 0.00 0.00 0.00 81 1012.5
20260505064505 13 220 0.0 3.2 0.00 0.00 0.00 80 1012.3
20260505064005 13 220 0.0 3.2 0.00 0.00 0.00 80 1012.2
20260505063505 13 213 0.0 6.4 0.00 0.00 0.00 79 1012.1
20260505063005 13 213 0.0 6.4 0.00 0.00 0.00 79 1012.1
20260505062506 13 246 0.0 4.8 0.00 0.00 0.00 79 1012.0
20260505062005 14 229 0.0 4.8 0.00 0.00 0.00 78 1011.9
20260505061006 14 212 0.0 4.8 0.00 0.00 0.00 78 1011.9
20260505060505 14 212 0.0 4.8 0.00 0.00 0.00 77 1011.9
20260505060005 15 0 0.0 0.0 0.00 0.00 0.00 77 1011.9
20260505055505 15 240 0.0 4.8 0.00 0.00 0.00 76 1011.9
20260505055006 15 236 0.0 4.8 0.00 0.00 0.00 76 1011.8
20260505054005 15 173 0.0 3.2 0.00 0.00 0.00 75 1011.7
20260505052507 16 212 1.6 8.0 0.00 0.00 0.00 74 1011.6
20260505052005 16 217 1.6 6.4 0.00 0.00 0.00 74 1011.6
20260505051005 16 0 0.0 0.0 0.00 0.00 0.00 73 1011.5
20260505050505 16 0 0.0 0.0 0.00 0.00 0.00 72 1011.4
20260505041505 18 227 0.0 4.8 0.00 0.00 0.00 68 1010.6
20260505040505 18 0 0.0 0.0 0.00 0.00 0.00 67 1010.4
20260505040005 18 0 0.0 0.0 0.00 0.00 0.00 67 1010.3
20260505035505 18 232 0.0 6.4 0.00 0.00 0.00 67 1010.2
20260505035005 19 232 0.0 6.4 0.00 0.00 0.00 66 1010.2
20260505034505 19 0 0.0 0.0 0.00 0.00 0.00 66 1010.1
20260505034005 19 0 0.0 0.0 0.00 0.00 0.00 66 1009.9
20260505033505 20 0 0.0 0.0 0.00 0.00 0.00 66 1009.9
20260505033005 20 0 0.0 0.0 0.00 0.00 0.00 66 1009.8
20260505032505 20 0 0.0 0.0 0.00 0.00 0.00 66 1009.8
20260505031505 20 226 0.0 3.2 0.00 0.00 0.00 65 1009.8
20260505031006 20 239 0.0 6.4 0.00 0.00 0.00 65 1009.7
20260505030505 20 241 0.0 6.4 0.00 0.00 0.00 65 1009.6
20260505030005 20 202 0.0 6.4 0.00 0.00 0.00 64 1009.6
20260505025505 21 224 1.6 6.4 0.00 0.00 0.00 65 1009.5
20260505025005 21 229 1.6 8.0 0.00 0.00 0.00 65 1009.6
20260505024505 21 226 3.2 9.7 0.00 0.00 0.00 64 1009.4
20260505024005 21 224 3.2 12.9 0.00 0.00 0.00 64 1009.4
20260505023506 21 228 1.6 12.9 0.00 0.00 0.00 64 1009.4
20260505023006 21 228 1.6 9.7 0.00 0.00 0.00 65 1009.4
20260505022005 21 227 1.6 6.4 0.00 0.00 0.00 65 1009.3
20260505021505 21 210 1.6 14.5 0.00 0.00 0.00 65 1009.3
20260505021006 21 208 3.2 14.5 0.00 0.00 0.00 64 1009.3
20260505020505 21 210 1.6 11.3 0.00 0.00 0.00 64 1009.3
20260505020006 22 216 1.6 8.0 0.00 0.00 0.00 64 1009.3
20260505015505 22 217 1.6 9.7 0.00 0.00 0.00 63 1009.2
20260505014505 22 219 1.6 9.7 0.00 0.00 0.00 64 1009.2
20260505014005 22 212 1.6 12.9 0.00 0.00 0.00 63 1009.2
20260505013505 22 194 1.6 12.9 0.00 0.00 0.00 63 1009.3
20260505013005 22 197 1.6 11.3 0.00 0.00 0.00 63 1009.4
20260505012506 22 213 3.2 11.3 0.00 0.00 0.00 64 1009.3
20260505012005 22 200 1.6 11.3 0.00 0.00 0.00 63 1009.3
20260505011505 22 193 1.6 8.0 0.00 0.00 0.00 63 1009.4
20260505010506 22 204 1.6 9.7 0.00 0.00 0.00 62 1009.5
20260505010005 22 193 1.6 6.4 0.00 0.00 0.00 62 1009.6
20260505005006 22 220 3.2 14.5 0.00 0.00 0.00 62 1009.7
20260505004506 22 204 1.6 14.5 0.00 0.00 0.00 62 1009.7
20260505004005 22 197 3.2 9.7 0.00 0.00 0.00 61 1009.6
20260505003505 22 195 3.2 9.7 0.00 0.00 0.00 61 1009.6
20260505002005 22 207 3.2 11.3 0.00 0.00 0.00 60 1009.7
20260505001505 22 195 3.2 16.1 0.00 0.00 0.00 60 1009.8
20260505001005 22 176 1.6 16.1 0.00 0.00 0.00 60 1009.8
20260505000006 23 218 3.2 12.9 0.00 0.00 0.00 60 1009.9
20260504235506 23 223 3.2 12.9 0.00 0.00 0.00 59 1009.9
20260504235005 23 220 3.2 11.3 0.00 0.00 0.00 59 1009.9
20260504234505 23 222 3.2 11.3 0.00 0.00 0.00 61 1010.0
20260504234005 23 220 1.6 11.3 0.00 0.00 0.00 59 1010.0
20260504233005 23 217 3.2 14.5 0.00 0.00 0.00 57 1010.1
20260504232505 23 193 1.6 8.0 0.00 0.00 0.00 59 1010.2
20260504232005 23 216 1.6 11.3 0.00 0.00 0.00 58 1010.2
20260504231507 23 216 1.6 11.3 0.00 0.00 0.00 57 1010.2